Location: Amsterdam
(30.7274°N, 84.4357°W)
Time: 20:16:48
(UTC+00:00)

POLYITAN 1 - Pass Details

Date: 20 March 2026
Orbit: 467 x 477 km, 98.1° (Epoch: 18 April)

Event Time Altitude Azimuth Distance (km) Brightness Sun altitude
Rises 00:20:11 0° 187° (S) 2,511 ? -7.6°
Reaches altitude 10° 00:22:23 10° 198° (SSW) 1,635 ? -8.1°
Maximum altitude 00:25:31 30° 261° (W) 863 ? -8.7°
Drops below altitude 10° 00:28:40 10° 325° (NW) 1,638 ? -9.4°
Sets 00:30:53 0° 336° (NNW) 2,516 ? -9.9°
